This is the latest recevied weather packets stored in our database for station/object KD0ISH. If no packets are shown the sender has not sent any weather packets the latest 10 day(s).
| Time | Temp. | Humidity | Pressure | Rain* | Wind** | Luminosity | Snow |
|---|---|---|---|---|---|---|---|
| 1777833137 | 23.89° C | 48% | 1015.3 hPa | 0 mm | - | 686 W/m² | - |
| 1777832835 | 23.89° C | 49% | 1015.1 hPa | 0 mm | - | 692 W/m² | - |
| 1777832534 | 23.89° C | 48% | 1015.4 hPa | 0 mm | - | 661 W/m² | - |
| 1777832230 | 23.89° C | 51% | 1015.5 hPa | 0 mm | - | 441 W/m² | - |
| 1777831927 | 23.89° C | 52% | 1015.5 hPa | 0 mm | - | 680 W/m² | - |
| 1777831624 | 23.33° C | 50% | 1015.8 hPa | 0 mm | - | 679 W/m² | - |
| 1777831322 | 23.33° C | 50% | 1015.6 hPa | 0 mm | - | 690 W/m² | - |
| 1777831019 | 23.33° C | 53% | 1015.9 hPa | 0 mm | - | 623 W/m² | - |
| 1777830716 | 23.33° C | 52% | 1015.8 hPa | 0 mm | - | 76 W/m² | - |
| 1777830412 | 23.33° C | 50% | 1016 hPa | 0 mm | - | 632 W/m² | - |
| 1777830110 | 22.78° C | 55% | 1016.1 hPa | 0 mm | - | 411 W/m² | - |
| 1777829805 | 22.78° C | 52% | 1016.3 hPa | 0 mm | - | 72 W/m² | - |
| 1777829501 | 22.78° C | 54% | 1016.6 hPa | 0 mm | - | 54 W/m² | - |
| 1777829198 | 22.22° C | 52% | 1016.5 hPa | 0 mm | - | 153 W/m² | - |
| 1777828896 | 22.22° C | 51% | 1016.6 hPa | 0 mm | - | 53 W/m² | - |
| 1777828592 | 22.22° C | 55% | 1016.7 hPa | 0 mm | - | 51 W/m² | - |
| 1777828289 | 21.67° C | 54% | 1016.7 hPa | 0 mm | - | 52 W/m² | - |
| 1777827986 | 21.67° C | 54% | 1016.7 hPa | 0 mm | - | 64 W/m² | - |
| 1777827683 | 21.67° C | 55% | 1016.7 hPa | 0 mm | - | 51 W/m² | - |
| 1777827380 | 21.67° C | 55% | 1016.8 hPa | 0 mm | - | 51 W/m² | - |
| 1777827076 | 21.11° C | 54% | 1017 hPa | 0 mm | - | 52 W/m² | - |
| 1777826773 | 21.67° C | 57% | 1017 hPa | 0 mm | - | 49 W/m² | - |
| 1777826470 | 21.11° C | 56% | 1017.2 hPa | 0 mm | - | 48 W/m² | - |
| 1777826167 | 21.11° C | 55% | 1017.1 hPa | 0 mm | - | 56 W/m² | - |
| 1777825864 | 21.11° C | 54% | 1017.2 hPa | 0 mm | - | 48 W/m² | - |
* Rain latest hour (hover to see other rain measurements)
** Current wind speed in m/s (hover to see current wind gust speed)